Location: Gälforsberget
(66.6500°N, 22.4167°E)
Time: 07:57:19
(UTC+00:00)

ALOS 2 - Pass Details

Date: 11 April 2026
Orbit: 630 x 632 km, 97.9° (Epoch: 14 May)

Event Time Altitude Azimuth Distance (km) Brightness Sun altitude
Exits shadow 19:14:15 - 103° (ESE) 2,408 5.0 -6.9°
Reaches altitude 10° 19:15:20 10° 96° (E) 2,026 4.7 -6.9°
Maximum altitude 19:18:56 25° 41° (NE) 1,283 4.2 -7.2°
Drops below altitude 10° 19:22:33 10° 347° (NNW) 2,032 6.2 -7.5°
Sets 19:25:02 0° 334° (NNW) 2,943 7.6 -7.6°
